N959AW SAWC-SAWH

Flight info

Callsign N959AW
Flight time N/A
Altitude 39000
Route DEVIS2D DEVIS UW52 GAL UW42 GRA DCT DABLI DABLI1Q
Aircraft CL60/M-SBDE1E2E3FGHIJ1J4J5J7M3RWXYZ/LB1V1D1

Departure

Time 2026-04-22 22:52
Airport El Calafate - Commander Armando Tola International Airport (SAWC)

Arrival

Time N/A
Airport Ushuaia - Malvinas Argentinas International Airport (SAWH)
Time Latitude Longitude Altitude Speed Heading
2026-04-22 22:24 -50.28361 -72.05561 660 ft 0 kts 174°
2026-04-22 22:41 -50.28364 -72.05562 659 ft 1 kts 192°
2026-04-22 22:41 -50.28362 -72.05587 659 ft 4 kts 319°
2026-04-22 22:41 -50.28316 -72.05604 658 ft 8 kts 346°
2026-04-22 22:42 -50.28275 -72.05600 658 ft 4 kts 61°
2026-04-22 22:42 -50.28270 -72.05527 657 ft 9 kts 83°
2026-04-22 22:42 -50.28262 -72.05426 657 ft 7 kts 66°
2026-04-22 22:42 -50.28223 -72.05399 657 ft 6 kts 355°
2026-04-22 22:43 -50.28196 -72.05401 656 ft 0 kts 354°
2026-04-22 22:46 -50.28175 -72.05405 656 ft 5 kts 355°
2026-04-22 22:46 -50.28135 -72.05410 656 ft 5 kts 354°
2026-04-22 22:47 -50.28122 -72.05411 656 ft 0 kts 354°
2026-04-22 22:49 -50.28110 -72.05413 656 ft 4 kts 355°
2026-04-22 22:49 -50.28059 -72.05419 656 ft 9 kts
2026-04-22 22:49 -50.28024 -72.05315 655 ft 14 kts 85°
2026-04-22 22:50 -50.28012 -72.05131 654 ft 19 kts 84°
2026-04-22 22:50 -50.28001 -72.04891 652 ft 24 kts 83°
2026-04-22 22:50 -50.27982 -72.04614 651 ft 25 kts 85°
2026-04-22 22:50 -50.27963 -72.04329 649 ft 28 kts 85°
2026-04-22 22:51 -50.27945 -72.03997 647 ft 31 kts 85°
2026-04-22 22:51 -50.27935 -72.03777 644 ft 12 kts 92°
2026-04-22 22:51 -50.27963 -72.03640 641 ft 10 kts 109°
2026-04-22 22:51 -50.27921 -72.03585 640 ft 4 kts 291°
2026-04-22 22:52 -50.27926 -72.03680 642 ft 20 kts 264°
2026-04-22 22:52 -50.27967 -72.04349 650 ft 109 kts 265°
2026-04-22 22:52 -50.28038 -72.05833 1159 ft 152 kts 265°
2026-04-22 22:52 -50.28133 -72.07437 2325 ft 159 kts 264°
2026-04-22 22:53 -50.28279 -72.09181 3297 ft 177 kts 271°
2026-04-22 22:53 -50.28389 -72.11066 4494 ft 186 kts 271°
2026-04-22 22:53 -50.28504 -72.12968 6048 ft 183 kts 271°
2026-04-22 22:53 -50.28614 -72.14774 7643 ft 176 kts 271°
2026-04-22 22:54 -50.28715 -72.16405 9145 ft 170 kts 274°
2026-04-22 22:54 -50.28820 -72.18295 10316 ft 184 kts 274°
2026-04-22 22:54 -50.28927 -72.20388 11190 ft 209 kts 272°
2026-04-22 22:54 -50.29052 -72.22662 12289 ft 223 kts 271°
2026-04-22 22:55 -50.29187 -72.25060 13392 ft 234 kts 270°
2026-04-22 22:55 -50.29332 -72.27634 14450 ft 246 kts 270°
2026-04-22 22:55 -50.29641 -72.32916 16755 ft 254 kts 270°
2026-04-22 22:56 -50.29796 -72.35641 17685 ft 263 kts 269°
2026-04-22 22:56 -50.30108 -72.38463 18706 ft 273 kts 259°
2026-04-22 22:56 -50.30989 -72.41100 19535 ft 298 kts 240°
2026-04-22 22:56 -50.32695 -72.43069 20702 ft 324 kts 213°
2026-04-22 22:57 -50.34904 -72.44083 21553 ft 347 kts 201°
2026-04-22 22:57 -50.37414 -72.44179 22468 ft 373 kts 184°
2026-04-22 22:57 -50.39867 -72.43144 23344 ft 396 kts 165°
2026-04-22 22:57 -50.42228 -72.40697 24070 ft 422 kts 141°
2026-04-22 22:58 -50.43905 -72.36928 24847 ft 436 kts 114°
2026-04-22 22:58 -50.44964 -72.32376 25194 ft 453 kts 107°
2026-04-22 22:58 -50.45965 -72.27634 25394 ft 472 kts 108°
2026-04-22 22:58 -50.47024 -72.22671 25797 ft 484 kts 109°
2026-04-22 22:59 -50.48092 -72.17670 26455 ft 487 kts 108°
2026-04-22 22:59 -50.49169 -72.12620 27116 ft 490 kts 107°
2026-04-22 22:59 -50.50244 -72.07577 27836 ft 491 kts 107°
2026-04-22 22:59 -50.51323 -72.02508 28550 ft 491 kts 108°
2026-04-22 23:00 -50.52300 -71.97914 29262 ft 489 kts 107°
2026-04-22 23:00 -50.53376 -71.92842 30124 ft 484 kts 107°
2026-04-22 23:00 -50.54468 -71.87690 30984 ft 479 kts 108°
2026-04-22 23:00 -50.55547 -71.82805 31649 ft 476 kts 110°
2026-04-22 23:01 -50.56936 -71.78086 32259 ft 474 kts 119°
2026-04-22 23:01 -50.58638 -71.73769 32788 ft 473 kts 126°
2026-04-22 23:01 -50.60667 -71.69758 33347 ft 470 kts 133°
2026-04-22 23:01 -50.62821 -71.65940 33841 ft 469 kts 134°
2026-04-22 23:02 -50.65007 -71.62065 34357 ft 467 kts 133°
2026-04-22 23:02 -50.67138 -71.58275 34805 ft 467 kts 133°
2026-04-22 23:02 -50.69281 -71.54456 35157 ft 468 kts 133°
2026-04-22 23:02 -50.71426 -71.50625 35529 ft 468 kts 133°
2026-04-22 23:03 -50.73579 -71.46773 35874 ft 468 kts 133°
2026-04-22 23:03 -50.75657 -71.43048 36171 ft 468 kts 133°
2026-04-22 23:03 -50.77811 -71.39179 36449 ft 468 kts 133°
2026-04-22 23:03 -50.79804 -71.35593 36786 ft 467 kts 133°
2026-04-22 23:04 -50.81982 -71.31670 37168 ft 467 kts 131°
2026-04-22 23:04 -50.84089 -71.27865 37453 ft 468 kts 131°
2026-04-22 23:04 -50.86232 -71.23991 37746 ft 468 kts 132°
2026-04-22 23:04 -50.88366 -71.20123 38037 ft 469 kts 132°
2026-04-22 23:05 -50.90491 -71.16269 38285 ft 470 kts 132°
2026-04-22 23:05 -50.92651 -71.12344 38327 ft 474 kts 131°
2026-04-22 23:05 -50.96988 -71.04367 38334 ft 487 kts 129°
2026-04-22 23:06 -51.00590 -70.95232 38330 ft 499 kts 114°
2026-04-22 23:06 -51.02763 -70.84754 38328 ft 507 kts 98°
2026-04-22 23:07 -51.03719 -70.73646 38337 ft 515 kts 94°
2026-04-22 23:07 -51.04651 -70.62370 38358 ft 524 kts 97°
2026-04-22 23:08 -51.06604 -70.51177 38373 ft 532 kts 111°
2026-04-22 23:08 -51.10033 -70.40775 38355 ft 534 kts 124°
2026-04-22 23:09 -51.14037 -70.32288 38346 ft 532 kts 128°
2026-04-22 23:09 -51.18368 -70.23393 38364 ft 532 kts 129°
2026-04-22 23:10 -51.22851 -70.14136 38349 ft 532 kts 128°
2026-04-22 23:10 -51.27373 -70.04756 38350 ft 533 kts 128°
2026-04-22 23:11 -51.31844 -69.95437 38349 ft 534 kts 129°
2026-04-22 23:11 -51.36346 -69.86015 38369 ft 536 kts 129°
2026-04-22 23:12 -51.40841 -69.76567 38369 ft 536 kts 129°
2026-04-22 23:12 -51.45312 -69.67134 38365 ft 536 kts 129°
2026-04-22 23:13 -51.49796 -69.57633 38358 ft 536 kts 129°
2026-04-22 23:13 -51.54262 -69.48137 38366 ft 537 kts 129°
2026-04-22 23:14 -51.58965 -69.39022 38375 ft 534 kts 138°
2026-04-22 23:14 -51.64677 -69.31570 38375 ft 526 kts 151°
2026-04-22 23:15 -51.71051 -69.26194 38368 ft 518 kts 162°
2026-04-22 23:15 -51.77660 -69.21616 38357 ft 519 kts 162°
2026-04-22 23:16 -51.84241 -69.17029 38352 ft 517 kts 162°
2026-04-22 23:16 -51.90762 -69.12459 38350 ft 510 kts 163°
2026-04-22 23:17 -51.97218 -69.07918 38345 ft 509 kts 163°
2026-04-22 23:17 -52.03651 -69.03378 38343 ft 509 kts 162°
2026-04-22 23:18 -52.10098 -68.98810 38333 ft 509 kts 162°
2026-04-22 23:18 -52.16392 -68.94333 38309 ft 509 kts 162°
2026-04-22 23:19 -52.22739 -68.89803 38325 ft 508 kts 162°
2026-04-22 23:19 -52.28981 -68.85331 38331 ft 504 kts 162°
2026-04-22 23:20 -52.35208 -68.80854 38326 ft 496 kts 162°
2026-04-22 23:20 -52.41547 -68.76286 38319 ft 496 kts 163°
2026-04-22 23:21 -52.47758 -68.71795 38336 ft 496 kts 162°
2026-04-22 23:21 -52.54015 -68.67257 38305 ft 497 kts 162°
2026-04-22 23:22 -52.60322 -68.62668 38314 ft 498 kts 162°
2026-04-22 23:22 -52.66621 -68.58069 38310 ft 497 kts 162°
2026-04-22 23:23 -52.72938 -68.53442 38302 ft 497 kts 162°
2026-04-22 23:23 -52.79223 -68.48823 38310 ft 496 kts 162°
2026-04-22 23:24 -52.85495 -68.44205 38276 ft 497 kts 162°
2026-04-22 23:24 -52.91757 -68.39581 38297 ft 498 kts 162°
2026-04-22 23:25 -52.97800 -68.35104 38293 ft 498 kts 162°
2026-04-22 23:25 -53.03925 -68.30553 38284 ft 499 kts 161°
2026-04-22 23:26 -53.10089 -68.25957 38309 ft 498 kts 162°
2026-04-22 23:26 -53.16183 -68.21401 38279 ft 498 kts 161°
2026-04-22 23:27 -53.22434 -68.16712 38278 ft 499 kts 161°
2026-04-22 23:27 -53.25592 -68.14340 37934 ft 507 kts 162°
2026-04-22 23:27 -53.28762 -68.11956 37555 ft 509 kts 162°
2026-04-22 23:28 -53.31965 -68.09540 36902 ft 511 kts 161°
2026-04-22 23:28 -53.35181 -68.07111 36244 ft 512 kts 161°
2026-04-22 23:28 -53.38413 -68.04665 35564 ft 514 kts 161°
2026-04-22 23:28 -53.41653 -68.02209 34879 ft 515 kts 161°
2026-04-22 23:29 -53.44890 -67.99752 34077 ft 516 kts 161°
2026-04-22 23:29 -53.48110 -67.97302 33330 ft 515 kts 161°
2026-04-22 23:29 -53.51353 -67.94828 32631 ft 512 kts 161°
2026-04-22 23:29 -53.54546 -67.92389 31962 ft 509 kts 161°
2026-04-22 23:30 -53.57732 -67.89951 31294 ft 506 kts 161°
2026-04-22 23:30 -53.60962 -67.87475 30594 ft 505 kts 161°
2026-04-22 23:30 -53.64121 -67.85050 29949 ft 504 kts 161°
2026-04-22 23:30 -53.67291 -67.82614 29275 ft 503 kts 161°
2026-04-22 23:31 -53.70457 -67.80175 28616 ft 498 kts 161°
2026-04-22 23:31 -53.73609 -67.77742 27963 ft 493 kts 161°
2026-04-22 23:31 -53.76701 -67.75507 27309 ft 483 kts 168°
2026-04-22 23:31 -53.79932 -67.74350 26670 ft 463 kts 183°
2026-04-22 23:32 -53.83081 -67.73997 26048 ft 456 kts 186°
2026-04-22 23:32 -53.86238 -67.73670 25440 ft 452 kts 186°
2026-04-22 23:32 -53.89370 -67.73341 24848 ft 449 kts 186°
2026-04-22 23:32 -53.92478 -67.73013 24242 ft 446 kts 186°
2026-04-22 23:33 -53.95538 -67.72688 23667 ft 442 kts 185°
2026-04-22 23:33 -53.98586 -67.72364 23075 ft 439 kts 186°
2026-04-22 23:33 -54.01596 -67.72044 22483 ft 435 kts 186°
2026-04-22 23:33 -54.04607 -67.71720 21899 ft 430 kts 186°
2026-04-22 23:34 -54.07540 -67.71405 21321 ft 425 kts 186°
2026-04-22 23:34 -54.10491 -67.71088 20747 ft 421 kts 185°
2026-04-22 23:34 -54.13236 -67.70791 20238 ft 417 kts 185°
2026-04-22 23:35 -54.18629 -67.70209 19178 ft 411 kts 185°
2026-04-22 23:35 -54.21285 -67.69922 18693 ft 406 kts 186°
2026-04-22 23:35 -54.24173 -67.69610 18121 ft 404 kts 185°
2026-04-22 23:35 -54.26971 -67.69308 17578 ft 401 kts 185°
2026-04-22 23:36 -54.29706 -67.69011 17057 ft 397 kts 185°
2026-04-22 23:36 -54.32474 -67.68709 16524 ft 393 kts 185°
2026-04-22 23:36 -54.35123 -67.68420 16020 ft 389 kts 185°
2026-04-22 23:36 -54.37797 -67.68130 15502 ft 386 kts 185°
2026-04-22 23:37 -54.40433 -67.67843 14999 ft 384 kts 184°
2026-04-22 23:37 -54.43097 -67.67551 14502 ft 381 kts 184°
2026-04-22 23:37 -54.45721 -67.67264 13970 ft 378 kts 184°
2026-04-22 23:37 -54.48306 -67.66980 13482 ft 374 kts 184°
2026-04-22 23:38 -54.50880 -67.66697 12985 ft 371 kts 185°
2026-04-22 23:38 -54.53401 -67.66419 12461 ft 368 kts 185°
2026-04-22 23:38 -54.55958 -67.66137 11892 ft 364 kts 185°
2026-04-22 23:38 -54.58144 -67.65894 11372 ft 360 kts 184°
2026-04-22 23:39 -54.60842 -67.65595 10806 ft 354 kts 185°
2026-04-22 23:39 -54.63277 -67.65323 10277 ft 349 kts 185°
2026-04-22 23:39 -54.65635 -67.65059 9793 ft 343 kts 185°
2026-04-22 23:39 -54.68019 -67.64790 9284 ft 339 kts 185°
2026-04-22 23:40 -54.70350 -67.64526 8804 ft 336 kts 184°
2026-04-22 23:40 -54.72654 -67.64263 8485 ft 327 kts 185°
2026-04-22 23:40 -54.74872 -67.64012 8242 ft 317 kts 185°
2026-04-22 23:40 -54.77041 -67.63779 8008 ft 306 kts 187°
2026-04-22 23:41 -54.79065 -67.64199 7733 ft 280 kts 210°
2026-04-22 23:41 -54.80686 -67.65694 7304 ft 253 kts 233°
2026-04-22 23:41 -54.81603 -67.67574 6979 ft 219 kts 260°
2026-04-22 23:41 -54.81896 -67.70157 6677 ft 191 kts 278°
2026-04-22 23:42 -54.81995 -67.72385 6480 ft 180 kts 278°
2026-04-22 23:42 -54.82103 -67.74397 6502 ft 156 kts 279°
2026-04-22 23:42 -54.82194 -67.76157 6493 ft 143 kts 281°
2026-04-22 23:42 -54.82261 -67.77858 6484 ft 139 kts 283°
2026-04-22 23:43 -54.82296 -67.79531 6379 ft 140 kts 283°
2026-04-22 23:43 -54.82345 -67.81188 6190 ft 137 kts 281°
2026-04-22 23:43 -54.82409 -67.82864 6006 ft 141 kts 282°
2026-04-22 23:43 -54.82478 -67.84543 5786 ft 140 kts 281°
2026-04-22 23:44 -54.82554 -67.86247 5560 ft 141 kts 281°
2026-04-22 23:44 -54.82628 -67.87936 5338 ft 142 kts 282°
2026-04-22 23:44 -54.82697 -67.89663 5099 ft 146 kts 280°
2026-04-22 23:44 -54.82766 -67.91291 4906 ft 147 kts 280°
2026-04-22 23:45 -54.82846 -67.93159 4648 ft 149 kts 279°
2026-04-22 23:45 -54.82925 -67.94958 4423 ft 149 kts 279°
2026-04-22 23:45 -54.82999 -67.96719 4188 ft 149 kts 279°
2026-04-22 23:45 -54.83075 -67.98480 3973 ft 144 kts 279°
2026-04-22 23:46 -54.83149 -68.00214 3734 ft 144 kts 278°
2026-04-22 23:46 -54.83217 -68.01948 3491 ft 144 kts 279°
2026-04-22 23:46 -54.83289 -68.03670 3272 ft 143 kts 278°
2026-04-22 23:46 -54.83360 -68.05412 3034 ft 147 kts 277°
2026-04-22 23:47 -54.83432 -68.07190 2811 ft 148 kts 277°
2026-04-22 23:47 -54.83502 -68.08979 2571 ft 152 kts 275°
2026-04-22 23:47 -54.83580 -68.10798 2319 ft 145 kts 276°
2026-04-22 23:47 -54.83659 -68.12434 2139 ft 129 kts 275°
2026-04-22 23:48 -54.83724 -68.13963 1950 ft 129 kts 275°
2026-04-22 23:48 -54.83778 -68.15520 1731 ft 131 kts 276°
2026-04-22 23:48 -54.83833 -68.17084 1509 ft 130 kts 275°
2026-04-22 23:48 -54.83894 -68.18637 1325 ft 130 kts 275°
2026-04-22 23:49 -54.83957 -68.20140 1117 ft 125 kts 274°
2026-04-22 23:49 -54.84020 -68.21683 937 ft 131 kts 279°
2026-04-22 23:49 -54.84076 -68.23189 676 ft 124 kts 276°
2026-04-22 23:49 -54.84125 -68.24633 609 ft 119 kts 272°
2026-04-22 23:50 -54.84207 -68.25997 384 ft 121 kts 279°
2026-04-22 23:50 -54.84262 -68.27637 1091 ft 155 kts 276°
2026-04-22 23:50 -54.84283 -68.29730 1991 ft 197 kts 275°
2026-04-22 23:50 -54.84396 -68.32009 3637 ft 198 kts 271°
2026-04-22 23:51 -54.84534 -68.34224 5344 ft 193 kts 272°
2026-04-22 23:51 -54.85141 -68.36289 6839 ft 217 kts 233°
2026-04-22 23:51 -54.86538 -68.37316 8289 ft 244 kts 195°
2026-04-22 23:51 -54.88292 -68.37046 9325 ft 270 kts 169°
2026-04-22 23:52 -54.89908 -68.35345 9769 ft 278 kts 132°
2026-04-22 23:52 -54.90763 -68.32446 9920 ft 268 kts 94°
2026-04-22 23:52 -54.90966 -68.29319 9916 ft 263 kts 85°
2026-04-22 23:52 -54.90968 -68.26166 9877 ft 259 kts 78°
2026-04-22 23:53 -54.90842 -68.22832 9941 ft 288 kts 77°
2026-04-22 23:53 -54.90714 -68.19371 9938 ft 293 kts 79°
2026-04-22 23:53 -54.90590 -68.15808 9973 ft 296 kts 79°
2026-04-22 23:53 -54.90462 -68.12218 9964 ft 297 kts 79°
2026-04-22 23:54 -54.90334 -68.08660 9966 ft 296 kts 78°
2026-04-22 23:54 -54.90203 -68.05075 9968 ft 298 kts 79°
2026-04-22 23:54 -54.90070 -68.01476 9963 ft 295 kts 79°
2026-04-22 23:54 -54.89947 -67.98019 9981 ft 281 kts 79°
2026-04-22 23:55 -54.89829 -67.94733 9984 ft 267 kts 78°
2026-04-22 23:55 -54.89706 -67.91528 9680 ft 269 kts 77°
2026-04-22 23:55 -54.89575 -67.88248 9309 ft 273 kts 77°
2026-04-22 23:55 -54.89446 -67.84975 8921 ft 273 kts 77°
2026-04-22 23:56 -54.89319 -67.81741 8584 ft 268 kts 76°
2026-04-22 23:56 -54.88862 -67.78799 8247 ft 239 kts 43°
2026-04-22 23:56 -54.87733 -67.77179 7783 ft 193 kts
2026-04-22 23:56 -54.86518 -67.77161 7302 ft 168 kts 341°
2026-04-22 23:57 -54.85434 -67.77746 6814 ft 159 kts 332°
2026-04-22 23:57 -54.84459 -67.78580 6310 ft 154 kts 327°
2026-04-22 23:57 -54.83647 -67.79750 5816 ft 152 kts 316°
2026-04-22 23:57 -54.83060 -67.81181 5573 ft 141 kts 306°
2026-04-22 23:58 -54.82683 -67.82851 5610 ft 157 kts 295°
2026-04-22 23:58 -54.82537 -67.84763 5578 ft 162 kts 285°
2026-04-22 23:58 -54.82568 -67.86758 5493 ft 168 kts 281°
2026-04-22 23:58 -54.82653 -67.88794 5197 ft 168 kts 278°
2026-04-22 23:59 -54.82751 -67.90788 4975 ft 163 kts 278°
2026-04-22 23:59 -54.82834 -67.92763 4708 ft 165 kts 279°
2026-04-22 23:59 -54.82917 -67.94746 4451 ft 165 kts 278°
2026-04-22 23:59 -54.83000 -67.96748 4182 ft 166 kts 278°
2026-04-23 00:00 -54.83167 -68.00768 3653 ft 168 kts 278°
2026-04-23 00:00 -54.83241 -68.02503 3434 ft 162 kts 277°
2026-04-23 00:00 -54.83321 -68.04542 3149 ft 155 kts 278°
2026-04-23 00:01 -54.83402 -68.06421 2913 ft 154 kts 275°
2026-04-23 00:01 -54.83478 -68.08305 2678 ft 159 kts 277°
2026-04-23 00:01 -54.83552 -68.10222 2406 ft 160 kts 275°
2026-04-23 00:01 -54.83632 -68.12109 2139 ft 159 kts 274°
2026-04-23 00:02 -54.83711 -68.14034 1918 ft 162 kts 274°
2026-04-23 00:02 -54.83791 -68.15934 1689 ft 148 kts 274°
2026-04-23 00:02 -54.83866 -68.17638 1464 ft 140 kts 272°
2026-04-23 00:02 -54.83934 -68.19266 1224 ft 132 kts 277°
2026-04-23 00:03 -54.83990 -68.20695 1052 ft 133 kts 278°
2026-04-23 00:03 -54.84044 -68.22345 773 ft 128 kts 274°
2026-04-23 00:03 -54.84105 -68.23848 658 ft 124 kts 272°
2026-04-23 00:03 -54.84196 -68.25360 384 ft 139 kts 275°
2026-04-23 00:04 -54.84243 -68.27176 173 ft 147 kts 274°
2026-04-23 00:04 -54.84293 -68.28705 87 ft 100 kts 289°
2026-04-23 00:04 -54.84296 -68.30147 586 ft 142 kts 273°
2026-04-23 00:04 -54.84371 -68.31833 1585 ft 148 kts 278°
2026-04-23 00:05 -54.84249 -68.33630 2622 ft 166 kts 278°
2026-04-23 00:05 -54.84719 -68.35414 3908 ft 180 kts 232°
2026-04-23 00:05 -54.85939 -68.36288 4840 ft 217 kts 189°
2026-04-23 00:05 -54.87501 -68.36225 5873 ft 236 kts 181°
2026-04-23 00:06 -54.89113 -68.35575 7007 ft 252 kts 154°
2026-04-23 00:06 -54.90332 -68.33522 8227 ft 251 kts 115°
2026-04-23 00:06 -54.90956 -68.30730 9271 ft 258 kts 102°
2026-04-23 00:06 -54.91492 -68.27692 9743 ft 267 kts 102°
2026-04-23 00:07 -54.92034 -68.24554 9908 ft 268 kts 102°
2026-04-23 00:07 -54.92566 -68.21409 9986 ft 290 kts 101°
2026-04-23 00:07 -54.92988 -68.17959 11177 ft 293 kts 83°
2026-04-23 00:07 -54.92607 -68.14754 12696 ft 267 kts 53°
2026-04-23 00:08 -54.91634 -68.12190 13953 ft 249 kts 30°
2026-04-23 00:08 -54.90350 -68.10510 15230 ft 230 kts 11°
2026-04-23 00:08 -54.88908 -68.09649 16331 ft 217 kts 354°
2026-04-23 00:08 -54.87469 -68.09597 17395 ft 207 kts 339°
2026-04-23 00:09 -54.86147 -68.10192 18499 ft 199 kts 331°
2026-04-23 00:09 -54.84884 -68.10951 19610 ft 198 kts 330°